Location: Linton
(52.0940°N, 0.2850°E)
Time: 23:51:48
(UTC+00:00)

N. Korean satellite - Visible Passes

Search period start: 22 November 2017 00:00
Search period end: 02 December 2017 00:00
Orbit: 460 x 514 km, 97.2° (Epoch: 22 November)

Date Brightness Start Highest point End Pass type
(mag) Time Alt. Az. Time Alt. Az. Time Alt. Az.
22 Nov 7.1 06:51:16 10° NNE 06:55:01 70° ESE 06:58:47 10° S visible
22 Nov 6.5 17:32:50 10° SSE 17:36:21 62° ENE 17:39:55 10° N visible
22 Nov 9.9 19:08:35 10° WSW 19:10:17 13° W 19:12:01 10° WNW visible
23 Nov 8.3 06:27:56 10° NNE 06:31:29 39° E 06:35:01 10° SSE visible
23 Nov 7.1 17:09:41 10° SE 17:12:56 34° ENE 17:16:16 10° N visible
23 Nov 9.1 18:43:44 10° SW 18:46:34 22° W 18:49:28 10° NW visible
24 Nov 9.4 06:04:49 10° NE 06:07:51 23° E 06:10:53 10° SSE visible
24 Nov 7.8 16:46:51 10° ESE 16:49:36 21° ENE 16:52:24 10° NNE visible
24 Nov 8.0 18:19:34 10° SSW 18:22:55 38° W 18:26:21 10° NNW visible
25 Nov 10.0 05:42:09 10° ENE 05:44:08 14° E 05:46:07 10° ESE visible
25 Nov 6.8 17:55:47 10° S 17:59:21 72° WSW 18:03:00 10° NNW visible
26 Nov 7.1 06:50:49 10° NNE 06:54:35 70° ESE 06:58:20 10° S visible
26 Nov 6.5 17:32:20 10° SSE 17:35:51 62° ENE 17:39:29 10° N visible
26 Nov 9.9 19:08:00 10° WSW 19:09:48 13° W 19:11:37 10° WNW visible
27 Nov 8.3 06:27:27 10° NNE 06:31:00 39° E 06:34:33 10° SSE visible
27 Nov 7.2 17:09:09 10° SE 17:12:26 35° ENE 17:15:48 10° N visible
27 Nov 9.1 18:43:10 10° SW 18:46:04 22° W 18:49:00 10° NW visible
28 Nov 9.4 06:04:18 10° NE 06:07:21 23° E 06:10:23 10° SSE visible
28 Nov 7.8 16:46:18 10° ESE 16:49:05 21° ENE 16:51:55 10° NNE visible
28 Nov 8.0 18:19:00 10° SSW 18:22:24 39° W 18:25:52 10° NNW visible
29 Nov 10.0 05:41:38 10° NE 05:43:37 14° E 05:45:36 10° ESE visible
29 Nov 6.8 17:55:13 10° S 17:58:49 72° WSW 18:02:29 10° NNW visible
30 Nov 7.1 06:50:16 10° NNE 06:54:03 70° ESE 06:57:48 10° S visible
30 Nov 6.5 17:31:44 10° SSE 17:35:17 62° ENE 17:38:58 10° N visible
30 Nov 9.9 19:07:21 10° WSW 19:09:14 14° W 19:11:08 10° WNW visible
01 Dec 8.3 06:26:53 10° NNE 06:30:27 38° E 06:34:00 10° SSE visible
01 Dec 7.2 17:08:32 10° SE 17:11:52 35° ENE 17:15:15 10° N visible
01 Dec 9.1 18:42:32 10° SSW 18:45:28 23° W 18:48:28 10° NW visible
